| time (UTC) | temp C | wind direction | speed KPH | gust KPH | rain 1hr cm | rain 24hr cm | rain mn cm | humidity % | barometer mb |
| 20260902100003 | 15 | 197 | 3.2 | 12.9 | 0.00 | 0.00 | 0.00 | 85 | 1007.2 |
| 20260902095403 | 15 | 193 | 3.2 | 11.3 | 0.00 | 0.00 | 0.00 | 86 | 1007.2 |
| 20260902094503 | 15 | 212 | 3.2 | 14.5 | 0.00 | 0.00 | 0.00 | 86 | 1007.2 |
| 20260902093603 | 15 | 155 | 1.6 | 9.7 | 0.00 | 0.00 | 0.00 | 87 | 1007.5 |
| 20260902092703 | 16 | 148 | 1.6 | 6.4 | 0.00 | 0.00 | 0.00 | 79 | 1007.5 |
| 20260902091803 | 15 | 211 | 3.2 | 14.5 | 0.00 | 0.00 | 0.00 | 88 | 1007.5 |
| 20260902090903 | 15 | 210 | 3.2 | 6.4 | 0.00 | 0.00 | 0.00 | 89 | 1007.5 |
| 20260902090003 | 16 | 110 | 1.6 | 3.2 | 0.00 | 0.00 | 0.00 | 81 | 1007.5 |
| 20260902085403 | 16 | 145 | 1.6 | 3.2 | 0.00 | 0.00 | 0.00 | 81 | 1007.5 |
| 20260902084503 | 15 | 138 | 1.6 | 6.4 | 0.00 | 0.00 | 0.00 | 88 | 1007.9 |
| 20260902083603 | 16 | 87 | 1.6 | 4.8 | 0.00 | 0.00 | 0.00 | 81 | 1007.9 |
| 20260902082703 | 16 | 328 | 0.0 | 4.8 | 0.00 | 0.00 | 0.00 | 88 | 1007.9 |
| 20260902081803 | 16 | 34 | 1.6 | 9.7 | 0.00 | 0.00 | 0.00 | 80 | 1007.9 |
| 20260902081116 | 16 | 178 | 1.6 | 9.7 | 0.00 | 0.00 | 0.00 | 80 | 1007.9 |
| 20260902080216 | 15 | 241 | 1.6 | 6.4 | 0.00 | 0.00 | 0.00 | 88 | 1007.9 |
| 20260902075615 | 15 | 242 | 0.0 | 1.6 | 0.00 | 0.00 | 0.00 | 88 | 1008.2 |
| 20260902074719 | 16 | 203 | 1.6 | 12.9 | 0.00 | 0.00 | 0.00 | 80 | 1007.9 |
| 20260902073818 | 15 | 223 | 0.0 | 4.8 | 0.00 | 0.00 | 0.00 | 88 | 1008.2 |
| 20260902072703 | 16 | 194 | 1.6 | 4.8 | 0.00 | 0.00 | 0.00 | 81 | 1008.2 |
| 20260902071803 | 15 | 139 | 1.6 | 4.8 | 0.00 | 0.00 | 0.00 | 89 | 1008.2 |
| 20260902070903 | 16 | 60 | 1.6 | 11.3 | 0.00 | 0.00 | 0.00 | 80 | 1008.2 |
| 20260902070003 | 15 | 203 | 1.6 | 11.3 | 0.00 | 0.00 | 0.00 | 88 | 1008.2 |
| 20260902065403 | 15 | 208 | 1.6 | 3.2 | 0.00 | 0.00 | 0.00 | 88 | 1008.2 |
| 20260902064503 | 16 | 188 | 1.6 | 1.6 | 0.00 | 0.00 | 0.00 | 80 | 1008.6 |
| 20260902063603 | 16 | 184 | 1.6 | 6.4 | 0.00 | 0.00 | 0.00 | 80 | 1008.6 |
| 20260902062703 | 15 | 202 | 1.6 | 4.8 | 0.00 | 0.00 | 0.00 | 87 | 1008.6 |
| 20260902061803 | 15 | 207 | 1.6 | 11.3 | 0.00 | 0.00 | 0.00 | 87 | 1008.6 |
| 20260902061116 | 16 | 189 | 1.6 | 11.3 | 0.00 | 0.00 | 0.00 | 86 | 1008.9 |
| 20260902060003 | 16 | 193 | 0.0 | 4.8 | 0.00 | 0.00 | 0.00 | 78 | 1008.6 |
| 20260902055403 | 16 | 198 | 1.6 | 6.4 | 0.00 | 0.00 | 0.00 | 78 | 1008.9 |
| 20260902054503 | 16 | 201 | 1.6 | 4.8 | 0.00 | 0.00 | 0.00 | 85 | 1008.6 |
| 20260902053603 | 16 | 208 | 1.6 | 4.8 | 0.00 | 0.00 | 0.00 | 83 | 1008.6 |
| 20260902052703 | 16 | 208 | 1.6 | 1.6 | 0.00 | 0.00 | 0.00 | 75 | 1008.9 |
| 20260902051803 | 16 | 189 | 1.6 | 6.4 | 0.00 | 0.00 | 0.00 | 75 | 1008.9 |
| 20260902050903 | 16 | 174 | 3.2 | 4.8 | 0.00 | 0.00 | 0.00 | 81 | 1008.9 |
| 20260902050004 | 16 | 193 | 3.2 | 9.7 | 0.00 | 0.00 | 0.00 | 81 | 1008.9 |
| 20260902045403 | 16 | 218 | 3.2 | 3.2 | 0.00 | 0.00 | 0.00 | 76 | 1008.9 |
| 20260902044503 | 16 | 197 | 1.6 | 4.8 | 0.00 | 0.00 | 0.00 | 76 | 1008.9 |
| 20260902043603 | 16 | 193 | 1.6 | 3.2 | 0.00 | 0.00 | 0.00 | 82 | 1008.9 |
| 20260902042703 | 16 | 201 | 1.6 | 9.7 | 0.00 | 0.00 | 0.00 | 82 | 1008.9 |
| 20260902041803 | 16 | 203 | 0.0 | 3.2 | 0.00 | 0.00 | 0.00 | 83 | 1008.9 |
| 20260902040903 | 16 | 201 | 0.0 | 1.6 | 0.00 | 0.00 | 0.00 | 77 | 1008.9 |
| 20260902040003 | 16 | 173 | 0.0 | 3.2 | 0.00 | 0.00 | 0.00 | 84 | 1009.2 |
| 20260902035618 | 16 | 168 | 0.0 | 3.2 | 0.00 | 0.00 | 0.00 | 84 | 1008.9 |
| 20260902034717 | 16 | 299 | 0.0 | 1.6 | 0.00 | 0.00 | 0.00 | 77 | 1008.9 |
| 20260902033817 | 16 | 248 | 1.6 | 3.2 | 0.00 | 0.00 | 0.00 | 77 | 1008.9 |
| 20260902032703 | 15 | 211 | 1.6 | 3.2 | 0.00 | 0.00 | 0.00 | 85 | 1008.9 |
| 20260902031803 | 15 | 210 | 1.6 | 3.2 | 0.00 | 0.00 | 0.00 | 84 | 1008.9 |
| 20260902030903 | 16 | 198 | 0.0 | 4.8 | 0.00 | 0.00 | 0.00 | 83 | 1008.9 |
| 20260902030003 | 16 | 179 | 1.6 | 4.8 | 0.00 | 0.00 | 0.00 | 82 | 1009.2 |
| 20260902025403 | 16 | 157 | 1.6 | 4.8 | 0.00 | 0.00 | 0.00 | 82 | 1008.9 |
| 20260902024503 | 16 | 190 | 1.6 | 4.8 | 0.00 | 0.00 | 0.00 | 83 | 1008.9 |
| 20260902023603 | 16 | 229 | 1.6 | 3.2 | 0.00 | 0.00 | 0.00 | 82 | 1008.9 |
| 20260902022703 | 16 | 231 | 0.0 | 3.2 | 0.00 | 0.00 | 0.00 | 82 | 1008.9 |
| 20260902021803 | 16 | 239 | 0.0 | 1.6 | 0.00 | 0.00 | 0.00 | 82 | 1008.9 |
| 20260902021118 | 16 | 252 | 0.0 | 3.2 | 0.00 | 0.00 | 0.00 | 82 | 1008.9 |
| 20260902020003 | 16 | 192 | 0.0 | 3.2 | 0.00 | 0.00 | 0.00 | 82 | 1008.9 |
| 20260902015403 | 16 | 218 | 0.0 | 3.2 | 0.00 | 0.00 | 0.00 | 82 | 1009.2 |
| 20260902014503 | 16 | 199 | 1.6 | 9.7 | 0.00 | 0.00 | 0.00 | 81 | 1008.9 |
| 20260902013603 | 16 | 217 | 1.6 | 3.2 | 0.00 | 0.00 | 0.00 | 81 | 1009.2 |
| 20260902012703 | 16 | 308 | 0.0 | 1.6 | 0.00 | 0.00 | 0.00 | 76 | 1009.2 |
| 20260902011803 | 16 | 223 | 1.6 | 3.2 | 0.00 | 0.00 | 0.00 | 76 | 1008.9 |
| 20260902010903 | 16 | 209 | 1.6 | 3.2 | 0.00 | 0.00 | 0.00 | 81 | 1008.9 |
| 20260902010003 | 16 | 212 | 1.6 | 3.2 | 0.00 | 0.00 | 0.00 | 81 | 1008.9 |
| 20260902005617 | 16 | 210 | 1.6 | 1.6 | 0.00 | 0.00 | 0.00 | 81 | 1008.6 |
| 20260902004716 | 16 | 208 | 1.6 | 3.2 | 0.00 | 0.00 | 0.00 | 81 | 1008.9 |
| 20260902003603 | 16 | 208 | 1.6 | 3.2 | 0.00 | 0.00 | 0.00 | 82 | 1008.6 |
| 20260902002703 | 16 | 205 | 1.6 | 3.2 | 0.00 | 0.00 | 0.00 | 80 | 1008.9 |
| 20260902001803 | 17 | 202 | 1.6 | 3.2 | 0.00 | 0.00 | 0.00 | 77 | 1008.9 |
| 20260902000903 | 17 | 207 | 1.6 | 3.2 | 0.00 | 0.00 | 0.00 | 77 | 1008.9 |
| 20260902000003 | 18 | 197 | 1.6 | 4.8 | 0.00 | 0.00 | 0.00 | 76 | 1008.9 |
| 20260901235403 | 18 | 205 | 1.6 | 3.2 | 0.00 | 0.00 | 0.00 | 76 | 1008.9 |
| 20260901234503 | 17 | 203 | 1.6 | 3.2 | 0.00 | 0.00 | 0.00 | 77 | 1008.9 |
| 20260901233603 | 17 | 205 | 1.6 | 4.8 | 0.00 | 0.00 | 0.00 | 77 | 1008.9 |
| 20260901232703 | 18 | 199 | 1.6 | 6.4 | 0.00 | 0.00 | 0.00 | 77 | 1008.9 |
| 20260901231803 | 18 | 196 | 1.6 | 4.8 | 0.00 | 0.00 | 0.00 | 77 | 1008.9 |
| 20260901230903 | 17 | 187 | 1.6 | 4.8 | 0.00 | 0.00 | 0.00 | 78 | 1008.9 |
| 20260901230004 | 17 | 182 | 1.6 | 6.4 | 0.00 | 0.00 | 0.00 | 77 | 1008.9 |
| 20260901225403 | 18 | 192 | 1.6 | 6.4 | 0.00 | 0.00 | 0.00 | 77 | 1008.6 |
| 20260901224715 | 18 | 182 | 3.2 | 6.4 | 0.00 | 0.00 | 0.00 | 77 | 1008.9 |
| 20260901223603 | 18 | 193 | 1.6 | 6.4 | 0.00 | 0.00 | 0.00 | 75 | 1008.9 |
| 20260901222918 | 18 | 161 | 3.2 | 6.4 | 0.00 | 0.00 | 0.00 | 76 | 1008.9 |
| 20260901221803 | 17 | 162 | 1.6 | 4.8 | 0.00 | 0.00 | 0.00 | 72 | 1008.9 |
| 20260901220903 | 19 | 192 | 1.6 | 1.6 | 0.00 | 0.00 | 0.00 | 74 | 1008.9 |
| 20260901220003 | 17 | 176 | 1.6 | 6.4 | 0.00 | 0.00 | 0.00 | 74 | 1008.9 |
| 20260901215403 | 16 | 175 | 0.0 | 6.4 | 0.00 | 0.00 | 0.00 | 74 | 1008.9 |
| 20260901214719 | 16 | 199 | 1.6 | 6.4 | 0.00 | 0.00 | 0.00 | 74 | 1008.9 |
| 20260901213603 | 18 | 200 | 1.6 | 4.8 | 0.00 | 0.00 | 0.00 | 75 | 1009.2 |
| 20260901212703 | 18 | 203 | 1.6 | 4.8 | 0.00 | 0.00 | 0.00 | 75 | 1009.2 |
| 20260901211803 | 18 | 200 | 1.6 | 4.8 | 0.00 | 0.00 | 0.00 | 75 | 1009.2 |
| 20260901210903 | 18 | 196 | 1.6 | 4.8 | 0.00 | 0.00 | 0.00 | 76 | 1009.2 |
| 20260901210003 | 18 | 171 | 1.6 | 3.2 | 0.00 | 0.00 | 0.00 | 76 | 1009.2 |
| 20260901205619 | 18 | 178 | 1.6 | 3.2 | 0.00 | 0.00 | 0.00 | 76 | 1009.2 |
| 20260901204503 | 19 | 157 | 3.2 | 8.0 | 0.00 | 0.00 | 0.00 | 74 | 1009.2 |
| 20260901203603 | 17 | 150 | 4.8 | 8.0 | 0.00 | 0.00 | 0.00 | 75 | 1009.6 |
| 20260901202703 | 17 | 166 | 1.6 | 8.0 | 0.00 | 0.00 | 0.00 | 75 | 1009.2 |
| 20260901201803 | 20 | 193 | 1.6 | 4.8 | 0.00 | 0.00 | 0.00 | 74 | 1009.2 |
| 20260901200903 | 20 | 146 | 1.6 | 4.8 | 0.00 | 0.00 | 0.00 | 75 | 1009.2 |
| 20260901200003 | 19 | 145 | 1.6 | 6.4 | 0.00 | 0.00 | 0.00 | 76 | 1009.2 |
| 20260901195403 | 20 | 117 | 1.6 | 3.2 | 0.00 | 0.00 | 0.00 | 74 | 1009.2 |
| 20260901194503 | 20 | 97 | 1.6 | 3.2 | 0.00 | 0.00 | 0.00 | 73 | 1009.2 |
| 20260901193603 | 20 | 115 | 1.6 | 4.8 | 0.00 | 0.00 | 0.00 | 74 | 1009.2 |
| 20260901192703 | 20 | 109 | 1.6 | 4.8 | 0.00 | 0.00 | 0.00 | 73 | 1009.2 |
| 20260901191803 | 20 | 151 | 1.6 | 4.8 | 0.00 | 0.00 | 0.00 | 73 | 1009.6 |
| 20260901190903 | 20 | 118 | 0.0 | 3.2 | 0.00 | 0.00 | 0.00 | 71 | 1009.6 |
| 20260901190003 | 20 | 134 | 0.0 | 3.2 | 0.00 | 0.00 | 0.00 | 75 | 1009.2 |
| 20260901185403 | 19 | 178 | 1.6 | 6.4 | 0.00 | 0.00 | 0.00 | 77 | 1009.6 |
| 20260901184503 | 18 | 175 | 1.6 | 6.4 | 0.00 | 0.00 | 0.00 | 78 | 1009.6 |
| 20260901183603 | 18 | 175 | 1.6 | 4.8 | 0.00 | 0.00 | 0.00 | 79 | 1009.6 |
| 20260901182703 | 17 | 164 | 1.6 | 4.8 | 0.00 | 0.00 | 0.00 | 80 | 1009.6 |
| 20260901181803 | 17 | 187 | 1.6 | 3.2 | 0.00 | 0.00 | 0.00 | 80 | 1009.6 |
| 20260901180903 | 17 | 202 | 1.6 | 3.2 | 0.00 | 0.00 | 0.00 | 81 | 1009.6 |
| 20260901180003 | 17 | 188 | 1.6 | 4.8 | 0.00 | 0.00 | 0.00 | 81 | 1009.6 |
| 20260901175403 | 16 | 162 | 1.6 | 4.8 | 0.00 | 0.00 | 0.00 | 82 | 1009.6 |
| 20260901174503 | 15 | 161 | 1.6 | 4.8 | 0.00 | 0.00 | 0.00 | 82 | 1009.6 |
| 20260901173603 | 16 | 198 | 0.0 | 1.6 | 0.00 | 0.00 | 0.00 | 83 | 1009.9 |
| 20260901172703 | 15 | 159 | 1.6 | 6.4 | 0.00 | 0.00 | 0.00 | 81 | 1009.9 |
| 20260901171803 | 15 | 205 | 1.6 | 4.8 | 0.00 | 0.00 | 0.00 | 86 | 1009.6 |
| 20260901170903 | 15 | 217 | 1.6 | 3.2 | 0.00 | 0.00 | 0.00 | 83 | 1009.9 |
| 20260901170218 | 15 | 164 | 1.6 | 6.4 | 0.00 | 0.00 | 0.00 | 83 | 1009.9 |
| 20260901165403 | 14 | 154 | 1.6 | 6.4 | 0.00 | 0.00 | 0.00 | 84 | 1009.6 |
| 20260901164717 | 15 | 262 | 0.0 | 3.2 | 0.00 | 0.00 | 0.00 | 88 | 1009.6 |
| 20260901163603 | 15 | 221 | 0.0 | 1.6 | 0.00 | 0.00 | 0.00 | 89 | 1009.6 |
| 20260901162703 | 15 | 338 | 0.0 | 1.6 | 0.00 | 0.00 | 0.00 | 89 | 1009.6 |
| 20260901162019 | 15 | 31 | 0.0 | 1.6 | 0.00 | 0.00 | 0.00 | 89 | 1009.6 |
| 20260901160903 | 14 | 2 | 0.0 | 3.2 | 0.00 | 0.00 | 0.00 | 91 | 1009.9 |
| 20260901160004 | 14 | 311 | 0.0 | 1.6 | 0.00 | 0.00 | 0.00 | 90 | 1009.9 |
| 20260901155403 | 15 | 271 | 0.0 | 1.6 | 0.00 | 0.00 | 0.00 | 90 | 1009.9 |
| 20260901154503 | 14 | 279 | 1.6 | 3.2 | 0.00 | 0.00 | 0.00 | 89 | 1009.9 |
| 20260901153603 | 14 | 326 | 1.6 | 3.2 | 0.00 | 0.00 | 0.00 | 90 | 1009.6 |
| 20260901152703 | 13 | 281 | 3.2 | 4.8 | 0.00 | 0.00 | 0.00 | 90 | 1009.6 |
| 20260901151803 | 13 | 291 | 1.6 | 3.2 | 0.00 | 0.00 | 0.00 | 92 | 1009.6 |
| 20260901151118 | 13 | 318 | 1.6 | 3.2 | 0.00 | 0.00 | 0.00 | 93 | 1009.6 |
| 20260901150217 | 13 | 315 | 1.6 | 3.2 | 0.00 | 0.00 | 0.00 | 95 | 1009.6 |
| 20260901145403 | 13 | 285 | 1.6 | 4.8 | 0.00 | 0.00 | 0.00 | 95 | 1009.6 |
| 20260901144503 | 12 | 319 | 1.6 | 4.8 | 0.00 | 0.00 | 0.00 | 95 | 1009.2 |
| 20260901143816 | 12 | 247 | 0.0 | 3.2 | 0.00 | 0.00 | 0.00 | 96 | 1009.6 |
| 20260901142703 | 12 | 288 | 0.0 | 3.2 | 0.00 | 0.00 | 0.00 | 96 | 1009.2 |
| 20260901141803 | 12 | 303 | 1.6 | 3.2 | 0.00 | 0.00 | 0.00 | 97 | 1009.6 |
| 20260901140903 | 11 | 272 | 0.0 | 1.6 | 0.00 | 0.00 | 0.00 | 97 | 1009.2 |
| 20260901140003 | 11 | 0 | 0.0 | 0.0 | 0.00 | 0.00 | 0.00 | 97 | 1009.2 |
| 20260901135403 | 11 | 286 | 0.0 | 1.6 | 0.00 | 0.00 | 0.00 | 96 | 1009.2 |
| 20260901134503 | 11 | 280 | 1.6 | 3.2 | 0.00 | 0.00 | 0.00 | 96 | 1008.9 |
| 20260901133819 | 11 | 273 | 1.6 | 1.6 | 0.00 | 0.00 | 0.00 | 96 | 1008.9 |
| 20260901132703 | 11 | 271 | 0.0 | 3.2 | 0.00 | 0.00 | 0.00 | 97 | 1009.2 |
| 20260901131803 | 11 | 285 | 0.0 | 1.6 | 0.00 | 0.00 | 0.00 | 97 | 1008.9 |
| 20260901130903 | 11 | 281 | 1.6 | 1.6 | 0.00 | 0.00 | 0.00 | 96 | 1008.9 |
| 20260901130003 | 11 | 0 | 0.0 | 0.0 | 0.00 | 0.00 | 0.00 | 96 | 1008.6 |
| 20260901125403 | 11 | 0 | 0.0 | 0.0 | 0.00 | 0.00 | 0.00 | 96 | 1008.9 |
| 20260901124716 | 11 | 0 | 0.0 | 0.0 | 0.00 | 0.00 | 0.00 | 96 | 1008.6 |
| 20260901123603 | 11 | 267 | 1.6 | 1.6 | 0.00 | 0.00 | 0.00 | 96 | 1008.9 |
| 20260901122703 | 11 | 268 | 0.0 | 1.6 | 0.00 | 0.00 | 0.00 | 96 | 1008.9 |
| 20260901121803 | 11 | 267 | 0.0 | 1.6 | 0.00 | 0.00 | 0.00 | 96 | 1008.9 |
| 20260901120903 | 12 | 266 | 0.0 | 1.6 | 0.00 | 0.00 | 0.00 | 96 | 1008.9 |
| 20260901120003 | 12 | 271 | 1.6 | 3.2 | 0.00 | 0.00 | 0.00 | 95 | 1008.9 |
| 20260901115616 | 12 | 271 | 1.6 | 3.2 | 0.00 | 0.00 | 0.00 | 95 | 1008.9 |
| 20260901114719 | 12 | 0 | 0.0 | 0.0 | 0.00 | 0.00 | 0.00 | 95 | 1008.9 |
| 20260901113819 | 12 | 0 | 0.0 | 0.0 | 0.00 | 0.00 | 0.00 | 95 | 1008.9 |
| 20260901112703 | 12 | 251 | 0.0 | 1.6 | 0.00 | 0.00 | 0.00 | 94 | 1008.9 |
| 20260901111803 | 12 | 268 | 1.6 | 3.2 | 0.00 | 0.00 | 0.00 | 94 | 1008.9 |
| 20260901110903 | 12 | 254 | 0.0 | 1.6 | 0.00 | 0.00 | 0.00 | 93 | 1009.2 |
| 20260901110003 | 12 | 256 | 1.6 | 1.6 | 0.00 | 0.00 | 0.00 | 93 | 1008.9 |
| 20260901105403 | 12 | 264 | 1.6 | 3.2 | 0.00 | 0.00 | 0.00 | 92 | 1008.9 |
| 20260901104503 | 12 | 267 | 0.0 | 3.2 | 0.00 | 0.00 | 0.00 | 93 | 1008.9 |
| 20260901103603 | 12 | 0 | 0.0 | 0.0 | 0.00 | 0.00 | 0.00 | 93 | 1009.2 |
| 20260901102703 | 12 | 272 | 0.0 | 1.6 | 0.00 | 0.00 | 0.00 | 93 | 1009.2 |
| 20260901102017 | 12 | 278 | 0.0 | 1.6 | 0.00 | 0.00 | 0.00 | 93 | 1008.9 |
| 20260901100903 | 12 | 267 | 0.0 | 1.6 | 0.00 | 0.00 | 0.00 | 93 | 1008.9 |